Location: Newark
(25.4297°S, 49.2719°W)
Time: 04:05:30
(UTC+00:00)

Hubble Space Telescope - Pass Details

Date: 24 June 2021
Orbit: 535 x 539 km, 28.5° (Epoch: 28 July)

Event Time Altitude Azimuth Distance (km) Brightness Sun altitude
Exits shadow 08:49:48 13° 309° (NW) 1,598 2.9 -16.1°
Maximum altitude 08:51:13 15° 332° (NNW) 1,487 2.9 -15.8°
Drops below altitude 10° 08:53:39 10° 8° (N) 1,784 3.8 -15.3°
Sets 08:56:41 0° 31° (NNE) 2,669 5.2 -14.7°
